Voltar ao catálogo

FENGYUN 1C DEB

LostPO
NORAD 36166·DEBRIS·🇨🇳 China

Lançado May 10, 1999 de Taiyuan Satellite Launch Center

Loading…

Próximas Passagens (próximas 24 horas)

TLE

ObsoletoSource: Space-Track

Época: Aug 26, 2021, 08:56 UTC

1 36166U 99025DSP 21238.37225613  .00000263  00000-0  27067-3 0  9998
2 36166  97.5578 144.4493 0357295 274.4987  81.5432 13.57752046677829

Acompanhe FENGYUN 1C DEB em tempo real com AllMySat

Download on the App Store